Tracking 28126 objects as of 2-Oct-2023
HD Live streaming from Space Station
objects crossing your sky now

STARLINK-3172

Track STARLINK-3172 now!
10-day predictions
STARLINK-3172 is classified as:


NORAD ID: 51139
Int'l Code: 2022-005AM
Perigee: 545.8 km
Apogee: 547.9 km
Inclination: 53.2 °
Period: 95.4 minutes
Semi major axis: 6917 km
RCS: Unknown
Launch date: January 19, 2022
Source: United States (US)
Launch site: AIR FORCE EASTERN TEST RANGE (AFETR)
Your satellite tracking list
Your tracking list is empty




NASA's NSSDC Master Catalog

Two Line Element Set (TLE):
1 51139U 22005AM  23274.57507483  .00005069  00000-0  33621-3 0  9993
2 51139  53.2164 334.9994 0001541  93.1879 266.9289 15.08854510 94362
Source of the keplerian elements: AFSPC